"Pseudo-MPEC" for P110947

Created 2020 May 27 22:07:08 UT using Find_Orb

Click here for an explanation of pseudo-MPECs

 
 Astrometry: 
     P110947  C2020 05 14esd\P6Y=Lhq%*+ZlRa)tTsy(2HapGM5@Astrometry8rKn.^14(nF51
     P110947  C2020 05 14d4redacted;NW@i:click:x3my;AI=I_7;1c?!t.[#Fherek*#esF51
     P110947  C2020 05 14=K+M+^C'b`*GQy2nbQforI\_*9;P^E-Js%*D0WexplanationPHTF51

Station data:
(F51) Pan-STARRS 1, Haleakala  (N20.707235 W156.255910)  US/Hawaii.
   Observers N. Primak, A. Schultz, S. Watters, J. Thiel, T. Goggia. Measurer
   PS1 Science Consortium. 1.8-m Ritchey-Chrétien + CCD.

Orbital elements:  P110947
   Perihelion 2020 Aug 11.995500 +/- 271 TT = 23:53:31 (JD 2459073.495500)
Epoch 2020 May 14.0 TT = JDT 2458983.5   Earth MOID: 0.2362   AutoNEOCP
M 338.93964475 +/- 60               (J2000 ecliptic)
n   0.23401564 +/- 0.217            Peri.   36.36486 +/- 90
a   2.60799117 +/- 1.61             Node   258.69973 +/- 53
e   0.5313956 +/- 0.262             Incl.   12.32620 +/- 30
P   4.21                   H 21.2   G  0.15   U 11.7  SR
q 1.22211591 +/- 0.932    Q 3.99386644 +/- 35.1
From 3 observations 2020 May 14 (27.7 min); mean residual 0".18
Residuals in arcseconds: 
200514 F51  .14-  .11-    200514 F51  .28+  .21+    200514 F51  .14-  .11-    

Ephemerides (geocentric):
Date (UTC) HH   RA              Dec         delta   r     elong  mag " sig PA
---- -- -- --  -------------   -----------  ------ ------ -----  --- ---- ---
2020 05 27 22  13 42 34.071   -25 21 50.38  .53488 1.4793 143.8 21.8 944' 144
2020 05 27 23  13 42 33.343   -25 20 53.03  .53477 1.4791 143.8 21.8 949' 145
2020 05 28 00  13 42 32.621   -25 19 55.66  .53467 1.4789 143.8 21.8 954' 145
2020 05 28 01  13 42 31.904   -25 18 58.27  .53456 1.4786 143.7 21.8 958' 145
2020 05 28 02  13 42 31.193   -25 18 00.86  .53445 1.4784 143.7 21.8 962' 146
2020 05 28 03  13 42 30.488   -25 17 03.44  .53435 1.4781 143.6 21.8 966' 146
2020 05 28 04  13 42 29.789   -25 16 05.99  .53424 1.4779 143.6 21.8 970' 146
2020 05 28 05  13 42 29.095   -25 15 08.53  .53414 1.4777 143.6 21.8 973' 147
2020 05 28 06  13 42 28.407   -25 14 11.04  .53403 1.4774 143.5 21.8 976' 147
2020 05 28 07  13 42 27.725   -25 13 13.54  .53393 1.4772 143.5 21.8 979' 147
2020 05 28 08  13 42 27.048   -25 12 16.02  .53383 1.4769 143.4 21.8 982' 147
2020 05 28 09  13 42 26.377   -25 11 18.48  .53372 1.4767 143.4 21.8 985' 147
2020 05 28 10  13 42 25.712   -25 10 20.92  .53362 1.4765 143.4 21.8 987' 148
2020 05 28 11  13 42 25.053   -25 09 23.35  .53352 1.4762 143.3 21.8 990' 148
2020 05 28 12  13 42 24.399   -25 08 25.75  .53341 1.4760 143.3 21.8 992' 148
2020 05 28 13  13 42 23.751   -25 07 28.14  .53331 1.4757 143.2 21.8 994' 148
2020 05 28 14  13 42 23.109   -25 06 30.51  .53321 1.4755 143.2 21.8 996' 148
2020 05 28 15  13 42 22.473   -25 05 32.86  .53310 1.4753 143.2 21.8 998' 149
2020 05 28 16  13 42 21.842   -25 04 35.19  .53300 1.4750 143.1 21.8  17d 149
2020 05 28 17  13 42 21.217   -25 03 37.51  .53290 1.4748 143.1 21.8  17d 149
2020 05 28 18  13 42 20.598   -25 02 39.81  .53280 1.4745 143.0 21.8  17d 149
2020 05 28 19  13 42 19.985   -25 01 42.09  .53270 1.4743 143.0 21.8  17d 149
2020 05 28 20  13 42 19.377   -25 00 44.35  .53259 1.4741 143.0 21.8  17d 149
2020 05 28 21  13 42 18.775   -24 59 46.60  .53249 1.4738 142.9 21.8  17d 149
2020 05 28 22  13 42 18.179   -24 58 48.83  .53239 1.4736 142.9 21.8  17d 149
2020 05 28 23  13 42 17.589   -24 57 51.04  .53229 1.4733 142.8 21.8  17d 149
2020 05 29 00  13 42 17.004   -24 56 53.24  .53219 1.4731 142.8 21.8  17d 149
2020 05 29 01  13 42 16.426   -24 55 55.42  .53209 1.4729 142.8 21.8  17d 149
2020 05 29 02  13 42 15.853   -24 54 57.58  .53199 1.4726 142.7 21.8  17d 149
2020 05 29 03  13 42 15.286   -24 53 59.73  .53189 1.4724 142.7 21.8  17d 149
2020 05 29 04  13 42 14.725   -24 53 01.86  .53179 1.4721 142.6 21.8  17d 149
2020 05 29 05  13 42 14.169   -24 52 03.97  .53169 1.4719 142.6 21.8  17d 149
2020 05 29 06  13 42 13.620   -24 51 06.07  .53159 1.4717 142.6 21.8  17d 149
2020 05 29 07  13 42 13.076   -24 50 08.15  .53149 1.4714 142.5 21.8  17d 149
2020 05 29 08  13 42 12.538   -24 49 10.21  .53139 1.4712 142.5 21.8  17d 149
2020 05 29 09  13 42 12.006   -24 48 12.26  .53130 1.4709 142.4 21.8  17d 149
2020 05 29 10  13 42 11.480   -24 47 14.30  .53120 1.4707 142.4 21.8  17d 149
2020 05 29 11  13 42 10.959   -24 46 16.31  .53110 1.4705 142.4 21.8  17d 149
2020 05 29 12  13 42 10.445   -24 45 18.32  .53100 1.4702 142.3 21.8  17d 149
2020 05 29 13  13 42 09.936   -24 44 20.30  .53090 1.4700 142.3 21.8  17d 149
2020 05 29 14  13 42 09.433   -24 43 22.28  .53081 1.4697 142.2 21.8  17d 149
2020 05 29 15  13 42 08.936   -24 42 24.23  .53071 1.4695 142.2 21.8  17d 149
2020 05 29 16  13 42 08.445   -24 41 26.17  .53061 1.4693 142.2 21.8  17d 148
2020 05 29 17  13 42 07.960   -24 40 28.10  .53052 1.4690 142.1 21.8  17d 148
2020 05 29 18  13 42 07.481   -24 39 30.01  .53042 1.4688 142.1 21.8  17d 148
2020 05 29 19  13 42 07.007   -24 38 31.91  .53032 1.4686 142.0 21.8  17d 148
2020 05 29 20  13 42 06.539   -24 37 33.79  .53023 1.4683 142.0 21.8  17d 148
2020 05 29 21  13 42 06.078   -24 36 35.66  .53013 1.4681 142.0 21.8  17d 147